Home   Weather   Incheon   Past weeks

Flag for South Korea Past Weather in Incheon, South Korea — Yesterday and Last 2 Weeks

Now
50 °F

Clear.


Feels Like: 47 °F
Forecast: 49 / 68 °F
Wind: 7 mph from Southwest

Location: Incheon International Airport

Current Time: Apr 29, 2017 at 3:29:15 am

Latest Report: Apr 29, 2017 at 3:00 am


Visibility: 10 mi

Pressure: 29.71 "Hg

Humidity: 82%

Dew Point: 45 °F

Location of IncheonLocation

Past Weather in Incheon — Graph

°F

Incheon Temperature Yesterday

Maximum temperature yesterday: 64 °F (at 11:30 am)
Minimum temperature yesterday: 48 °F (at 1:30 am)
Average temperature yesterday: 55 °F

High & Low Weather Summary for the Past Weeks

 TemperatureHumidityPressure
High70 °F (Apr 16, 2:30 pm)100% (Apr 16, 3:00 am)30.12 "Hg (Apr 16, 3:00 am)
Low43 °F (Apr 24, 5:30 am)18% (Apr 26, 12:00 pm)29.42 "Hg (Apr 18, 11:00 am)
Average55 °F66%29.88 "Hg
* Reported Apr 14 2:00 am — Apr 29 2:30 am, Incheon, Weather by CustomWeather, © 2017

Note: Actual official high and low records may vary slightly from our data, if they occured in-between our weather recording intervals... More about our weather records

Advertising

Incheon Weather History for the Previous 24 Hours

Scroll right to see more
 ConditionsComfort  
Time TempWeatherWind HumidityBarometerVisibility
2:30 am
Sat, Apr 29
50 °FClear.2 mph76%29.71 "Hg10 mi
2:00 am52 °FClear.6 mph77%29.71 "Hg10 mi
1:30 am52 °FClear.5 mph72%29.71 "Hg10 mi
1:00 am52 °FClear.3 mph72%29.71 "Hg10 mi
12:30 am52 °FClear.3 mph72%29.68 "Hg10 mi
12:00 am52 °FPassing clouds.5 mph72%29.68 "HgN/A
11:30 pm
Fri, Apr 28
50 °FClear.5 mph76%29.68 "Hg10 mi
11:00 pm54 °FPassing clouds.5 mph67%29.68 "HgN/A
10:30 pm52 °FPassing clouds.5 mph77%29.65 "HgN/A
10:00 pm54 °FClear.5 mph72%29.65 "Hg10 mi
9:30 pm54 °FClear.6 mph72%29.65 "Hg10 mi
9:00 pm54 °FPassing clouds.6 mph72%29.65 "HgN/A
8:30 pm54 °FClear.2 mph77%29.65 "Hg10 mi
8:00 pm54 °FPassing clouds.6 mph77%29.62 "HgN/A
7:30 pm54 °FSunny.10 mph77%29.62 "Hg10 mi
7:00 pm54 °FPassing clouds.10 mph77%29.62 "HgN/A
6:30 pm55 °FSunny.10 mph72%29.62 "Hg10 mi
6:00 pm55 °FSunny.10 mph67%29.62 "Hg10 mi
5:30 pm57 °FScattered clouds.10 mph67%29.62 "HgN/A
4:30 pm59 °FScattered clouds.10 mph59%29.59 "HgN/A
4:00 pm61 °FScattered clouds.14 mph52%29.59 "HgN/A
3:30 pm63 °FScattered clouds.13 mph52%29.62 "HgN/A
3:00 pm63 °FScattered clouds.15 mph49%29.62 "HgN/A
2:30 pm63 °FScattered clouds.14 mph49%29.65 "HgN/A
2:00 pm64 °FPassing clouds.14 mph43%29.65 "HgN/A
1:30 pm64 °FPassing clouds.14 mph43%29.65 "HgN/A
1:00 pm63 °FSunny.15 mph49%29.68 "Hg10 mi
12:30 pm64 °FSunny.15 mph46%29.68 "Hg10 mi
12:00 pm63 °FSunny.16 mph49%29.68 "Hg10 mi
11:30 am64 °FSunny.17 mph49%29.71 "Hg10 mi
11:00 am63 °FPassing clouds.16 mph49%29.71 "HgN/A
10:30 am63 °FPassing clouds.16 mph45%29.71 "HgN/A
10:00 am63 °FSunny.15 mph45%29.71 "Hg10 mi
9:30 am61 °FPassing clouds.15 mph52%29.71 "HgN/A
9:00 am59 °FSunny.14 mph63%29.71 "Hg10 mi
8:30 am55 °FSunny.17 mph72%29.71 "Hg10 mi
8:00 am55 °FSunny.15 mph72%29.71 "Hg10 mi
7:30 am54 °FSunny.9 mph77%29.74 "Hg10 mi
7:00 am52 °FSunny.13 mph88%29.74 "Hg10 mi
6:30 am50 °FClear.15 mph88%29.74 "Hg10 mi
6:00 am48 °FClear.13 mph87%29.74 "Hg10 mi
5:30 am50 °FClear.9 mph82%29.74 "Hg10 mi
5:00 am50 °FClear.12 mph88%29.74 "Hg5 mi
4:30 am50 °FClear.13 mph88%29.74 "Hg5 mi
4:00 am50 °FClear.12 mph88%29.74 "Hg5 mi
3:30 am50 °FClear.8 mph88%29.77 "Hg5 mi
3:00 am50 °FClear.6 mph82%29.77 "Hg5 mi
Weather by CustomWeather, © 2017

See weather overviewHow to use our weather pages